This is the latest recevied weather packets stored in our database for station/object KF7IOR. If no packets are shown the sender has not sent any weather packets the latest 10 day(s).
| Time | Temp. | Humidity | Pressure | Rain* | Wind** | Luminosity | Snow |
|---|---|---|---|---|---|---|---|
| 1777537235 | 11.11° C | 77% | 1019.5 hPa | 0 mm | - | 0 W/m² | - |
| 1777535436 | 11.67° C | 76% | 1019.5 hPa | 0 mm | - | 0 W/m² | - |
| 1777533365 | 11.67° C | 76% | 1019.5 hPa | 0 mm | - | 0 W/m² | - |
| 1777532735 | 11.67° C | 76% | 1019.4 hPa | 0 mm | - | 0 W/m² | - |
| 1777531546 | 12.22° C | 74% | 1019.5 hPa | 0 mm | - | 0 W/m² | - |
| 1777529771 | 12.78° C | 71% | 1019.5 hPa | 0 mm | - | 0 W/m² | - |
| 1777527047 | 14.44° C | 66% | 1019.4 hPa | 0 mm | - | 0 W/m² | - |
| 1777526437 | 15° C | 65% | 1019.5 hPa | 0 mm | - | 0 W/m² | - |
| 1777525836 | 15° C | 64% | 1019.6 hPa | 0 mm | - | 0 W/m² | - |
| 1777523136 | 16.11° C | 62% | 1019.4 hPa | 0 mm | - | 0 W/m² | - |
| 1777520435 | 17.78° C | 56% | 1018.9 hPa | 0 mm | - | 0 W/m² | - |
| 1777520136 | 18.33° C | 54% | 1019 hPa | 0 mm | - | 0 W/m² | - |
| 1777519849 | 18.33° C | 53% | 1019 hPa | 0 mm | - | 0 W/m² | - |
| 1777518335 | 19.44° C | 49% | 1018.8 hPa | 0 mm | - | 7 W/m² | - |
| 1777515035 | 21.67° C | 43% | 1018.9 hPa | 0 mm | - | 93 W/m² | - |
| 1777514135 | 21.67° C | 42% | 1018.9 hPa | 0 mm | - | 142 W/m² | - |
| 1777513835 | 22.22° C | 42% | 1019.1 hPa | 0 mm | - | 158 W/m² | - |
| 1777512935 | 22.22° C | 41% | 1019.1 hPa | 0 mm | - | 206 W/m² | - |
| 1777509045 | 22.78° C | 41% | 1019.4 hPa | 0 mm | - | 394 W/m² | - |
| 1777506635 | 22.22° C | 43% | 1019.7 hPa | 0 mm | - | 503 W/m² | - |
| 1777505735 | 22.22° C | 43% | 1019.9 hPa | 0 mm | - | 540 W/m² | - |
| 1777504235 | 22.22° C | 40% | 1020.2 hPa | 0 mm | - | 603 W/m² | - |
| 1777501534 | 21.11° C | 43% | 1021 hPa | 0 mm | - | 691 W/m² | - |
| 1777500949 | 20.56° C | 45% | 1021.1 hPa | 0 mm | - | 707 W/m² | - |
| 1777500050 | 20° C | 44% | 1021.3 hPa | 0 mm | - | 731 W/m² | - |
* Rain latest hour (hover to see other rain measurements)
** Current wind speed in m/s (hover to see current wind gust speed)